This is the latest recevied weather packets stored in our database for station/object JH0KSP-13. If no packets are shown the sender has not sent any weather packets the latest 10 day(s).
| Time | Temp. | Humidity | Pressure | Rain* | Wind** | Luminosity | Snow |
|---|---|---|---|---|---|---|---|
| 1778117216 | 23.89° C | 46% | 1013.4 hPa | 0 mm | - | - | - |
| 1778116017 | 22.22° C | 58% | 1013.6 hPa | 0 mm | - | - | - |
| 1778115609 | 22.22° C | 63% | 1013.7 hPa | 0 mm | - | - | - |
| 1778114817 | 21.11° C | 66% | 1014 hPa | 0 mm | - | - | - |
| 1778113616 | 20° C | 71% | 1014.2 hPa | 0 mm | - | - | - |
| 1778112415 | 20° C | 81% | 1014.3 hPa | 0 mm | - | - | - |
| 1778111217 | 18.89° C | 86% | 1014.7 hPa | 0 mm | - | - | - |
| 1778110016 | 17.22° C | 95% | 1015.1 hPa | 0 mm | - | - | - |
| 1778108817 | 16.11° C | 97% | 1015.5 hPa | 0 mm | - | - | - |
| 1778107615 | 15° C | 100% | 1016.1 hPa | 0 mm | - | - | - |
| 1778106416 | 13.89° C | 100% | 1016.5 hPa | 0 mm | - | - | - |
| 1778105217 | 12.78° C | 100% | 1016.6 hPa | 0 mm | - | - | - |
| 1778104017 | 12.78° C | 100% | 1016.7 hPa | 0 mm | - | - | - |
| 1778102816 | 12.22° C | 100% | 1016.9 hPa | 0 mm | - | - | - |
| 1778101616 | 12.22° C | 100% | 1017 hPa | 0 mm | - | - | - |
| 1778100417 | 12.22° C | 100% | 1016.8 hPa | 0 mm | - | - | - |
| 1778099217 | 12.22° C | 100% | 1016.8 hPa | 0 mm | - | - | - |
| 1778098015 | 12.22° C | 100% | 1016.7 hPa | 0 mm | - | - | - |
| 1778097608 | 12.22° C | 100% | 1016.8 hPa | 0 mm | - | - | - |
| 1778096815 | 12.22° C | 100% | 1016.8 hPa | 0 mm | - | - | - |
| 1778095616 | 12.22° C | 100% | 1016.9 hPa | 0 mm | - | - | - |
| 1778094417 | 12.22° C | 100% | 1017 hPa | 0 mm | - | - | - |
| 1778093217 | 12.22° C | 100% | 1017.1 hPa | 0 mm | - | - | - |
| 1778092016 | 12.22° C | 100% | 1017.1 hPa | 0 mm | - | - | - |
| 1778091609 | 12.22° C | 100% | 1017.2 hPa | 0 mm | - | - | - |
* Rain latest hour (hover to see other rain measurements)
** Current wind speed in m/s (hover to see current wind gust speed)